Location: Eymir
(36.7333°N, 29.7833°E)
Time: 18:36:13
(UTC+00:00)

COSMO-SKYMED 1 - Pass Details

Date: 14 January 2026
Orbit: 577 x 579 km, 97.9° (Epoch: 17 February)

Event Time Altitude Azimuth Distance (km) Brightness Sun altitude
Rises 03:58:38 0° 180° (S) 2,783 6.1 -14.7°
Reaches altitude 10° 04:00:50 10° 187° (S) 1,889 5.2 -14.3°
Maximum altitude 04:04:47 46° 261° (W) 789 2.7 -13.5°
Drops below altitude 10° 04:08:45 10° 335° (NNW) 1,902 4.7 -12.8°
Enters shadow 04:09:12 - 336° (NNW) 2,085 4.9 -12.7°
